DW9572 Weather Reports


time (UTC)temp
F
wind
direction
speed
knots
gust
knots
rain 1hr
in
rain 24hr
in
rain mn
in
humidity
%
barometer
mb
20260905221550 75 222 7.0 10.4 0.00 0.00 0.00 38 1015.1
20260905220046 74 205 2.6 7.8 0.00 0.00 0.00 39 1015.1
20260905214544 73 146 3.5 6.1 0.00 0.00 0.00 40 1015.4
20260905213041 73 156 4.3 8.7 0.00 0.00 0.00 40 1015.5
20260905211545 72 128 0.0 4.3 0.00 0.00 0.00 41 1015.6
20260905210050 71 11 3.5 6.1 0.00 0.00 0.00 43 1015.7
20260905204534 71 336 0.0 5.2 0.00 0.00 0.00 45 1015.8
20260905203015 70 72 7.0 9.6 0.00 0.00 0.00 46 1016.0
20260905201514 70 345 6.1 9.6 0.00 0.00 0.00 46 1016.1
20260905200120 70 1 7.8 10.4 0.00 0.00 0.00 47 1016.1
20260905194552 69 9 5.2 10.4 0.00 0.00 0.00 48 1016.2
20260905193033 69 20 6.1 8.7 0.00 0.00 0.00 48 1016.2
20260905191539 68 3 7.8 11.3 0.00 0.00 0.00 49 1016.3
20260905190014 68 338 4.3 10.4 0.00 0.00 0.00 49 1016.4
20260905184512 68 5 4.3 10.4 0.00 0.00 0.00 49 1016.6
20260905183054 67 343 3.5 8.7 0.00 0.00 0.00 50 1016.8
20260905181551 67 59 6.1 12.2 0.00 0.00 0.00 49 1016.8
20260905180036 67 75 7.0 9.6 0.00 0.00 0.00 50 1017.0
20260905174533 67 340 4.3 7.8 0.00 0.00 0.00 52 1017.1
20260905173011 65 352 5.2 7.8 0.00 0.00 0.00 53 1017.2
20260905171529 65 25 3.5 9.6 0.00 0.00 0.00 53 1017.1
20260905170057 65 332 3.5 7.8 0.00 0.00 0.00 54 1017.1
20260905164550 64 46 7.0 10.4 0.00 0.00 0.00 54 1016.9
20260905163030 64 63 8.7 10.4 0.00 0.00 0.00 54 1016.9
20260905161536 64 33 7.0 9.6 0.00 0.00 0.00 56 1016.9
20260905160015 62 6 6.1 7.8 0.00 0.00 0.00 61 1016.9
20260905154502 60 343 0.9 5.2 0.00 0.00 0.00 71 1016.9
20260905153046 58 312 3.5 5.2 0.00 0.00 0.00 76 1017.0
20260905151546 58 277 3.5 6.1 0.00 0.00 0.00 79 1017.3
20260905150044 58 269 2.6 6.1 0.00 0.00 0.00 78 1017.3
20260905144550 58 118 0.9 2.6 0.00 0.00 0.00 76 1017.3
20260905143040 57 104 0.9 3.5 0.00 0.00 0.00 76 1017.0
20260905141537 57 291 1.7 4.3 0.00 0.00 0.00 77 1016.8
20260905140039 56 263 3.5 6.1 0.00 0.00 0.00 78 1016.7
20260905134533 57 279 6.1 8.7 0.00 0.00 0.00 76 1016.6
20260905133011 58 266 3.5 6.1 0.00 0.00 0.00 73 1016.5
20260905131510 57 347 0.0 1.7 0.00 0.00 0.00 69 1016.2
20260905130053 57 155 0.0 2.6 0.00 0.00 0.00 67 1016.0
20260905124550 59 276 0.0 5.2 0.00 0.00 0.00 66 1015.7
20260905123031 59 359 8.7 11.3 0.00 0.00 0.00 63 1015.4
20260905121530 59 15 3.5 5.2 0.00 0.00 0.00 59 1015.6
20260905120012 59 16 0.9 4.3 0.00 0.00 0.00 59 1015.7
20260905114512 58 349 4.3 5.2 0.00 0.00 0.00 62 1015.8
20260905113053 57 263 3.5 4.3 0.00 0.00 0.00 66 1015.8
20260905111606 56 276 3.5 5.2 0.00 0.00 0.00 67 1015.7
20260905110035 57 353 1.7 3.5 0.00 0.00 0.00 62 1015.6
20260905104543 57 10 0.0 2.6 0.00 0.00 0.00 62 1015.7
20260905103021 57 32 2.6 3.5 0.00 0.00 0.00 60 1015.4
20260905101521 58 45 1.7 4.3 0.00 0.00 0.00 59 1015.4
20260905100019 59 77 2.6 3.5 0.00 0.00 0.00 59 1015.3
20260905094518 62 338 1.7 3.5 0.00 0.00 0.00 54 1015.3
20260905093018 59 263 3.5 4.3 0.00 0.00 0.00 61 1015.3
20260905091518 58 269 1.7 7.0 0.00 0.00 0.00 64 1015.3
20260905090021 58 256 4.3 10.4 0.00 0.00 0.00 68 1015.3
20260905084522 59 242 7.8 10.4 0.00 0.00 0.00 66 1015.2
20260905083058 59 281 6.1 8.7 0.00 0.00 0.00 63 1014.9
20260905081611 62 259 6.1 7.8 0.00 0.00 0.00 57 1014.8
20260905080051 63 332 7.0 9.6 0.00 0.00 0.00 50 1014.6
20260905074638 63 333 0.9 7.8 0.00 0.00 0.00 50 1014.7
20260905073034 63 349 4.3 7.8 0.00 0.00 0.00 49 1014.5
20260905071518 63 346 6.1 10.4 0.00 0.00 0.00 49 1014.4
20260905070100 63 349 7.0 10.4 0.00 0.00 0.00 50 1014.4
20260905064602 63 350 6.1 9.6 0.00 0.00 0.00 51 1014.3
20260905063040 62 345 7.8 11.3 0.00 0.00 0.00 51 1014.1
20260905061603 62 348 7.0 9.6 0.00 0.00 0.00 51 1014.2
20260905060022 61 13 3.5 7.0 0.00 0.00 0.00 53 1014.1
20260905054521 61 277 0.0 3.5 0.00 0.00 0.00 56 1014.1
20260905053018 63 274 1.7 3.5 0.00 0.00 0.00 50 1014.0
20260905051507 65 340 5.2 11.3 0.00 0.00 0.00 48 1013.8
20260905050010 65 347 4.3 7.0 0.00 0.00 0.00 49 1013.8
20260905044514 64 314 2.6 7.0 0.00 0.00 0.00 50 1013.9
20260905043006 66 338 6.1 9.6 0.00 0.00 0.00 46 1013.8
20260905041510 65 336 0.0 1.7 0.00 0.00 0.00 44 1013.8
20260905040006 65 36 0.9 6.1 0.00 0.00 0.00 43 1013.8
20260905034508 64 274 3.5 6.1 0.00 0.00 0.00 55 1013.6
20260905033045 66 266 6.1 8.7 0.00 0.00 0.00 52 1013.5
20260905031545 67 290 3.5 9.6 0.00 0.00 0.00 40 1013.5
20260905030025 69 353 4.3 5.2 0.00 0.00 0.00 36 1013.2
20260905024525 68 357 3.5 4.3 0.00 0.00 0.00 36 1013.1
20260905023007 70 23 0.9 1.7 0.00 0.00 0.00 35 1013.1
20260905021507 71 69 0.9 2.6 0.00 0.00 0.00 35 1013.0
20260905020049 71 63 2.6 3.5 0.00 0.00 0.00 34 1013.0
20260905014548 72 62 0.9 3.5 0.00 0.00 0.00 33 1012.9
20260905013028 72 82 2.6 4.3 0.00 0.00 0.00 32 1012.8
20260905011528 72 117 2.6 3.5 0.00 0.00 0.00 33 1012.7
20260905010016 72 103 3.5 5.2 0.00 0.00 0.00 32 1012.7
20260905004509 72 148 1.7 5.2 0.00 0.00 0.00 34 1012.6
20260905003108 73 143 2.6 7.0 0.00 0.00 0.00 35 1012.6
20260905001550 73 111 7.8 9.6 0.00 0.00 0.00 34 1012.5
20260905000050 72 169 5.2 7.0 0.00 0.00 0.00 34 1012.6
20260904234540 72 91 3.5 8.7 0.00 0.00 0.00 35 1012.5
20260904233032 72 146 4.3 10.4 0.00 0.00 0.00 36 1012.6
20260904231513 72 138 6.1 10.4 0.00 0.00 0.00 37 1012.6
20260904230013 72 190 5.2 11.3 0.00 0.00 0.00 37 1012.7
20260904224556 72 138 2.6 7.8 0.00 0.00 0.00 39 1012.6
20260904223058 72 124 4.3 9.6 0.00 0.00 0.00 39 1012.6